Regional Weather Roundup
Issued by NWS Binghamton, NY

Current Version | Previous Version | Text Only | Print | Product List | Glossary On
Versions: 1 2 3 4 5 6 7 8 9 10 11 12 13 14 15 16 17 18 19 20 21 22 23 24 25 26 27 28 29 30 31 32 33 34 35 36 37 38 39 40 41 42 43 44 45 46 47 48 49 50
000
ASUS41 KBGM 012110
RWRBGM
RWRBGM
BINGHAMTON REGIONAL WEATHER ROUNDUP
NATIONAL WEATHER SERVICE BINGHAMTON NY
400 PM EST SUN FEB 01 2015

Note: "fair" indicates few or no clouds below 12,000 feet with no
significant weather and/or obstructions to visibility.

* = Station(s) that does not report precipitation, such as rain,
snow, etc, also no thunder or fog.

!NYZ009-015>018-022>025-036-037-044>046-055>057-062-012200
...CENTRAL NEW YORK...

CITY           SKY/WX    TMP DP  RH WIND       PRES   REMARKS
BINGHAMTON     LGT SNOW  22  18  85 NE5       30.04F FOG     WCI  16
CORTLAND       LGT SNOW  21  18  86 N5        30.10S WCI  15
DANSVILLE      FLURRIES  21  17  84 CALM      30.09F
ELMIRA         LGT SNOW  22  18  85 NE9       30.08F VSB 3/4 WCI  12
ITHACA         LGT SNOW  18  14  86 NW7       30.11  FOG     WCI   8
HAMILTON       CLOUDY    21  10  63 N6        30.10  WCI  14
MONTICELLO     PTSUNNY   28  16  59 W6        30.06F WCI  22
NORWICH        CLOUDY    25  12  58 N3        30.11R
ONEONTA        CLOUDY    21  10  63 N3        30.04S
PENN YAN       LGT SNOW  16  11  80 NE3       30.11F VSB 3/4
ROME           CLOUDY    20   5  52 CALM      30.17F
SIDNEY         CLOUDY    28  19  69 CALM      30.08S
SYRACUSE       CLOUDY    16   6  65 NW8       30.16F WCI   5
$$

!PAZ038>040-043-044-047-048-072-012200
...NORTHEAST PENNSYLVANIA...

CITY           SKY/WX    TMP DP  RH WIND       PRES   REMARKS
HAZLETON       MIX PCPN  30  27  86 CALM      30.05F
SCRANTON       LGT SNOW  30  23  75 CALM      30.07F
TOWANDA*       PTSUNNY   28  25  86 NE6       30.08F WCI  22
$$
&&
KEY
WCI = WIND CHILL INDEX
VSB = VISIBILITY
HX  = HEAT INDEX
$$


USA.gov is the U.S. government's official web portal to all federal, state and local government web resources and services.